Weather History for CWJR - September, 2013

Change the Weather History Date:

Monday, September 16, 2013

  Actual Average Record
Temperature  
Mean Temperature 65 °F -  
Max Temperature 72 °F - - ()
Min Temperature 58 °F - - ()
Growing Degree Days 15 (Base 50)    
Moisture  
Dew Point 56 °F    
Average Humidity 75    
Maximum Humidity 93    
Minimum Humidity 52    
Precipitation  
Precipitation 0.24 in - - ()
Sea Level Pressure  
Sea Level Pressure 29.80 in    
Wind  
Wind Speed 5 mph ()    
Max Wind Speed 14 mph    
Max Gust Speed 23 mph    
T = Trace of Precipitation, MM = Missing Value Source: Averaged Metar Reports

Daily Weather History Graph

Daily Weather History Graph

Search for Another Location

Airport or City:

Trip Planner

Search our weather history database for the weather conditions in past years. The results will help you decide how hot, cold, wet, or windy it might be!

Date:

Astronomy

Sep. 16, 2013 Rise Set
Actual Time 6:24 AM MST 6:56 PM MST
Civil Twilight 5:52 AM MST 7:27 PM MST
Nautical Twilight 5:14 AM MST 8:05 PM MST
Astronomical Twilight 4:34 AM MST 8:45 PM MST
Moon 5:17 PM MST (9/16) 3:02 AM MST (9/16)
Length of Visible Light 13h 35m
Length of Day
12h 31m
Waxing Gibbous, 91% of the Moon is Illuminated
Sep 16
Waxing Gibbous
Sep 19
Full
Sep 26
Last Quarter
Oct 4
New
Oct 11
First Quarter

Hourly Weather History & Observations

Time (MST) Temp. Dew Point Humidity Pressure Visibility Wind Dir Wind Speed Gust Speed Precip Events Conditions
12:00 AM 69.1 °F 50.5 °F 52% 29.66 in - North 1.2 mph - N/A   Unknown
1:00 AM 65.5 °F 55.2 °F 69% 29.74 in - SE 6.9 mph - 0.02 in   Unknown
2:00 AM 62.4 °F 60.3 °F 93% 29.76 in - ENE 10.4 mph - 0.21 in   Unknown
3:00 AM 62.6 °F 59.2 °F 89% 29.77 in - North 2.3 mph - N/A   Unknown
4:00 AM 61.9 °F 58.3 °F 88% 29.77 in - ENE 6.9 mph - N/A   Unknown
5:00 AM 61 °F 58 °F 85% 29.78 in - ENE 3.5 mph - -  
5:00 AM 61.0 °F 57.7 °F 89% 29.78 in - ENE 3.5 mph - N/A   Unknown
6:00 AM 60.8 °F 57.2 °F 88% 29.78 in - East 8.1 mph - N/A   Unknown
7:00 AM 61.3 °F 57.2 °F 86% 29.80 in - ENE 5.8 mph - N/A   Unknown
8:00 AM 61.2 °F 57.0 °F 86% 29.79 in - ESE 3.5 mph - N/A   Unknown
9:00 AM 64.2 °F 57.9 °F 80% 29.80 in - East 3.5 mph - N/A   Unknown
10:00 AM 64.9 °F 59.2 °F 82% 29.81 in - East 2.3 mph - N/A   Unknown
11:00 AM 67.6 °F 60.3 °F 77% 29.80 in - ESE 3.5 mph - N/A   Unknown
12:00 PM 66.0 °F 57.7 °F 75% 29.83 in - SSW 8.1 mph - N/A   Unknown
1:00 PM 65.1 °F 58.6 °F 79% 29.83 in - ESE 4.6 mph - 0.11 in   Unknown
2:00 PM 69.4 °F 58.1 °F 67% 29.81 in - SSE 8.1 mph - N/A   Unknown
3:00 PM 69.1 °F 55.9 °F 63% 29.80 in - South 10.4 mph 18.4 mph N/A   Unknown
4:00 PM 67.8 °F 55.4 °F 64% 29.80 in - South 13.8 mph 23.0 mph N/A   Unknown
5:00 PM 68 °F 55 °F 53% 29.80 in - South 11.5 mph - -  
5:00 PM 68.4 °F 54.7 °F 62% 29.80 in - South 11.5 mph 18.4 mph N/A   Unknown
6:00 PM 65.5 °F 54.0 °F 66% 29.81 in - SSE 12.7 mph 21.9 mph N/A   Unknown
7:00 PM 64.0 °F 52.7 °F 67% 29.81 in - SSE 10.4 mph - N/A   Unknown
8:00 PM 62.6 °F 53.1 °F 71% 29.82 in - NW 4.6 mph - N/A   Unknown
9:00 PM 61.3 °F 53.2 °F 75% 29.84 in - NW 11.5 mph 17.3 mph N/A   Unknown
10:00 PM 58.5 °F 52.2 °F 80% 29.86 in - West 2.3 mph - N/A   Unknown
11:00 PM 59 °F 52 °F 70% 29.87 in - WNW 4.6 mph - -  
11:00 PM 58.8 °F 51.8 °F 77% 29.87 in - WNW 4.6 mph - N/A   Unknown